GW2624 Weather Reports


time (UTC)temp
C
wind
direction
speed
KPH
gust
KPH
rain 1hr
cm
rain 24hr
cm
rain mn
cm
humidity
%
barometer
mb
20260906232405 31 201 1.6 8.0 0.00 0.00 0.00 21 1002.9
20260906231905 31 35 1.6 8.0 0.00 0.00 0.00 21 1002.9
20260906231404 31 151 4.8 8.0 0.00 0.00 0.00 20 1002.8
20260906230904 31 152 1.6 4.8 0.00 0.00 0.00 22 1002.9
20260906230404 31 183 0.0 12.9 0.00 0.00 0.00 22 1002.9
20260906225404 31 144 1.6 12.9 0.00 0.00 0.00 20 1002.9
20260906223904 31 83 1.6 9.7 0.00 0.00 0.00 21 1002.8
20260906223404 31 226 3.2 9.7 0.00 0.00 0.00 21 1003.0
20260906222904 31 194 1.6 11.3 0.00 0.00 0.00 22 1003.0
20260906222404 31 220 4.8 11.3 0.00 0.00 0.00 20 1003.1
20260906221904 31 201 3.2 9.7 0.00 0.00 0.00 21 1003.1
20260906221405 31 289 1.6 9.7 0.00 0.00 0.00 21 1003.2
20260906215905 31 153 3.2 16.1 0.00 0.00 0.00 19 1003.4
20260906215405 32 200 4.8 16.1 0.00 0.00 0.00 18 1003.5
20260906213405 31 137 0.0 4.8 0.00 0.00 0.00 20 1004.0
20260906212904 31 168 1.6 8.0 0.00 0.00 0.00 19 1004.1
20260906211404 31 238 3.2 11.3 0.00 0.00 0.00 19 1004.3
20260906210905 31 72 3.2 11.3 0.00 0.00 0.00 19 1004.2
20260906205405 31 187 3.2 11.3 0.00 0.00 0.00 19 1004.6
20260906202404 31 269 1.6 9.7 0.00 0.00 0.00 19 1004.8
20260906201905 31 265 4.8 9.7 0.00 0.00 0.00 20 1005.0
20260906201404 30 194 3.2 9.7 0.00 0.00 0.00 20 1005.0
20260906200905 30 263 4.8 9.7 0.00 0.00 0.00 20 1005.1
20260906200404 30 109 1.6 4.8 0.00 0.00 0.00 21 1005.0
20260906195405 31 283 1.6 8.0 0.00 0.00 0.00 20 1005.1
20260906194905 30 4 3.2 8.0 0.00 0.00 0.00 20 1005.2
20260906193404 30 51 1.6 9.7 0.00 0.00 0.00 23 1005.4
20260906192904 30 207 3.2 9.7 0.00 0.00 0.00 22 1005.4
20260906192404 29 325 3.2 8.0 0.00 0.00 0.00 23 1005.5
20260906191904 29 236 3.2 9.7 0.00 0.00 0.00 22 1005.7
20260906191404 29 226 3.2 12.9 0.00 0.00 0.00 23 1005.8
20260906190404 30 217 3.2 11.3 0.00 0.00 0.00 23 1005.9
20260906185404 30 215 4.8 14.5 0.00 0.00 0.00 20 1006.0
20260906184904 31 226 3.2 12.9 0.00 0.00 0.00 23 1005.9
20260906183904 30 305 3.2 9.7 0.00 0.00 0.00 22 1006.1
20260906182404 30 258 3.2 12.9 0.00 0.00 0.00 25 1006.4
20260906175905 29 232 3.2 9.7 0.00 0.00 0.00 26 1007.1
20260906174904 29 329 3.2 9.7 0.00 0.00 0.00 27 1007.2
20260906173404 28 359 3.2 4.8 0.00 0.00 0.00 29 1007.3
20260906164904 25 234 1.6 8.0 0.00 0.00 0.00 40 1007.5
20260906164404 24 213 3.2 8.0 0.00 0.00 0.00 41 1007.6
20260906163904 23 275 1.6 8.0 0.00 0.00 0.00 42 1007.6
20260906162404 23 287 1.6 4.8 0.00 0.00 0.00 41 1007.7
20260906160904 22 257 1.6 3.2 0.00 0.00 0.00 44 1007.8
20260906155904 22 246 0.0 4.8 0.00 0.00 0.00 47 1007.8
20260906154905 21 188 0.0 4.8 0.00 0.00 0.00 51 1007.9
20260906153904 20 223 1.6 3.2 0.00 0.00 0.00 56 1007.9
20260906151904 18 223 0.0 3.2 0.00 0.00 0.00 60 1007.9
20260906145904 17 346 1.6 4.8 0.00 0.00 0.00 59 1007.9
20260906144404 17 142 0.0 0.0 0.00 0.00 0.00 62 1007.6
20260906143904 17 142 0.0 0.0 0.00 0.00 0.00 62 1007.6
20260906142404 17 142 0.0 0.0 0.00 0.00 0.00 66 1007.6
20260906141905 16 142 0.0 0.0 0.00 0.00 0.00 68 1007.7
20260906141404 16 142 0.0 0.0 0.00 0.00 0.00 69 1007.7
20260906133904 14 0 0.0 4.8 0.00 0.00 0.00 71 1007.6
20260906130904 13 0 0.0 0.0 0.00 0.00 0.00 73 1007.3
20260906130404 13 0 0.0 0.0 0.00 0.00 0.00 72 1007.2
20260906125904 13 0 0.0 0.0 0.00 0.00 0.00 71 1007.4
20260906125404 13 0 0.0 0.0 0.00 0.00 0.00 71 1007.2
20260906124404 13 0 0.0 0.0 0.00 0.00 0.00 71 1007.1
20260906123904 13 0 0.0 0.0 0.00 0.00 0.00 72 1007.0
20260906123404 14 0 0.0 0.0 0.00 0.00 0.00 72 1006.9
20260906120905 14 0 0.0 1.6 0.00 0.00 0.00 71 1006.6
20260906115904 14 0 0.0 0.0 0.00 0.00 0.00 68 1006.5
20260906114404 15 0 1.6 3.2 0.00 0.00 0.00 67 1006.3
20260906113404 15 0 0.0 0.0 0.00 0.00 0.00 67 1006.4
20260906112904 15 0 0.0 0.0 0.00 0.00 0.00 67 1006.5
20260906112404 15 0 0.0 0.0 0.00 0.00 0.00 66 1006.5
20260906111404 16 0 0.0 3.2 0.00 0.00 0.00 65 1006.4
20260906110905 16 0 0.0 3.2 0.00 0.00 0.00 65 1006.4
20260906110404 16 123 0.0 1.6 0.00 0.00 0.00 63 1006.4
20260906105904 16 123 0.0 1.6 0.00 0.00 0.00 62 1006.4
20260906105405 16 123 0.0 0.0 0.00 0.00 0.00 62 1006.4
20260906104904 16 123 0.0 3.2 0.00 0.00 0.00 61 1006.5
20260906104404 16 123 0.0 3.2 0.00 0.00 0.00 61 1006.4
20260906103905 16 123 1.6 3.2 0.00 0.00 0.00 60 1006.5
20260906103404 17 123 1.6 3.2 0.00 0.00 0.00 59 1006.5
20260906102904 17 123 0.0 1.6 0.00 0.00 0.00 59 1006.4
20260906101904 17 123 0.0 0.0 0.00 0.00 0.00 58 1006.4
20260906101404 17 123 0.0 4.8 0.00 0.00 0.00 57 1006.4
20260906092905 17 123 0.0 3.2 0.00 0.00 0.00 54 1006.1
20260906092404 17 136 0.0 3.2 0.00 0.00 0.00 56 1006.1
20260906091404 17 139 0.0 0.0 0.00 0.00 0.00 58 1006.0
20260906090904 17 139 0.0 0.0 0.00 0.00 0.00 57 1006.1
20260906085905 17 139 0.0 1.6 0.00 0.00 0.00 60 1006.0
20260906085404 17 139 0.0 0.0 0.00 0.00 0.00 59 1006.0
20260906084904 17 139 0.0 0.0 0.00 0.00 0.00 58 1006.0
20260906084404 17 139 0.0 0.0 0.00 0.00 0.00 58 1006.0
20260906082404 17 139 0.0 1.6 0.00 0.00 0.00 58 1006.2
20260906081904 17 139 1.6 4.8 0.00 0.00 0.00 57 1006.2
20260906081405 17 139 1.6 4.8 0.00 0.00 0.00 58 1006.2
20260906074404 17 155 0.0 1.6 0.00 0.00 0.00 58 1006.3
20260906070905 18 155 0.0 4.8 0.00 0.00 0.00 52 1006.5
20260906070404 18 155 0.0 4.8 0.00 0.00 0.00 52 1006.6
20260906065404 18 146 1.6 3.2 0.00 0.00 0.00 52 1006.6
20260906064904 18 146 0.0 4.8 0.00 0.00 0.00 52 1006.6
20260906064404 18 146 0.0 4.8 0.00 0.00 0.00 52 1006.7
20260906063905 18 146 1.6 4.8 0.00 0.00 0.00 53 1006.6
20260906063404 18 148 1.6 4.8 0.00 0.00 0.00 53 1006.7
20260906062904 18 141 1.6 4.8 0.00 0.00 0.00 54 1006.6
20260906061404 18 138 0.0 1.6 0.00 0.00 0.00 53 1006.4
20260906060404 18 138 0.0 0.0 0.00 0.00 0.00 55 1006.4
20260906055905 18 138 0.0 0.0 0.00 0.00 0.00 55 1006.4
20260906055404 18 138 0.0 0.0 0.00 0.00 0.00 54 1006.3
20260906054905 19 138 0.0 0.0 0.00 0.00 0.00 54 1006.3
20260906053904 20 138 0.0 3.2 0.00 0.00 0.00 52 1006.3
20260906052905 20 138 0.0 3.2 0.00 0.00 0.00 49 1006.2
20260906051904 20 138 0.0 3.2 0.00 0.00 0.00 47 1006.3
20260906051404 21 138 0.0 3.2 0.00 0.00 0.00 48 1006.3
20260906050904 21 138 1.6 4.8 0.00 0.00 0.00 47 1006.3
20260906045404 21 143 3.2 4.8 0.00 0.00 0.00 46 1006.3
20260906044904 21 145 1.6 4.8 0.00 0.00 0.00 47 1006.3
20260906043404 21 146 1.6 3.2 0.00 0.00 0.00 45 1006.4
20260906042904 22 146 0.0 1.6 0.00 0.00 0.00 44 1006.4
20260906042404 22 146 0.0 1.6 0.00 0.00 0.00 44 1006.4
20260906040904 23 146 0.0 3.2 0.00 0.00 0.00 40 1006.5
20260906040404 23 146 0.0 4.8 0.00 0.00 0.00 39 1006.5
20260906035904 23 145 1.6 4.8 0.00 0.00 0.00 38 1006.4
20260906035404 23 143 3.2 8.0 0.00 0.00 0.00 37 1006.3
20260906034404 23 149 3.2 8.0 0.00 0.00 0.00 36 1006.0
20260906032904 23 146 3.2 9.7 0.00 0.00 0.00 35 1005.8
20260906031405 23 50 3.2 8.0 0.00 0.00 0.00 35 1005.9
20260906030904 23 115 3.2 8.0 0.00 0.00 0.00 36 1005.8
20260906030405 23 154 3.2 8.0 0.00 0.00 0.00 37 1005.8
20260906025905 22 38 1.6 4.8 0.00 0.00 0.00 38 1005.7
20260906025404 22 80 0.0 4.8 0.00 0.00 0.00 39 1005.5
20260906024904 22 77 1.6 3.2 0.00 0.00 0.00 40 1005.3
20260906024404 22 121 1.6 3.2 0.00 0.00 0.00 42 1005.2
20260906023904 22 117 0.0 1.6 0.00 0.00 0.00 41 1005.1
20260906023404 23 101 0.0 3.2 0.00 0.00 0.00 42 1005.0
20260906021404 24 51 1.6 4.8 0.00 0.00 0.00 37 1004.9
20260906020903 24 49 0.0 4.8 0.00 0.00 0.00 37 1004.9
20260906020404 24 48 3.2 4.8 0.00 0.00 0.00 35 1004.8
20260906015904 25 219 0.0 3.2 0.00 0.00 0.00 37 1004.8
20260906014404 26 219 1.6 3.2 0.00 0.00 0.00 35 1004.5
20260906012904 26 212 1.6 4.8 0.00 0.00 0.00 36 1004.4
20260906011904 26 115 0.0 1.6 0.00 0.00 0.00 35 1004.4
20260906011404 27 115 0.0 4.8 0.00 0.00 0.00 36 1004.4
20260906010904 27 115 0.0 4.8 0.00 0.00 0.00 36 1004.4
20260906010404 27 102 0.0 4.8 0.00 0.00 0.00 35 1004.4
20260906005904 28 103 1.6 4.8 0.00 0.00 0.00 34 1004.4
20260906004904 28 81 0.0 3.2 0.00 0.00 0.00 32 1004.3
20260906003904 28 40 3.2 8.0 0.00 0.00 0.00 30 1004.2
20260906003404 29 312 0.0 3.2 0.00 0.00 0.00 32 1004.2
20260906002904 29 312 1.6 4.8 0.00 0.00 0.00 32 1004.2
20260906002404 29 55 1.6 4.8 0.00 0.00 0.00 29 1004.2
20260906001404 30 254 1.6 4.8 0.00 0.00 0.00 30 1004.4
20260906000404 30 38 1.6 4.8 0.00 0.00 0.00 30 1004.3
20260905235904 30 53 1.6 4.8 0.00 0.00 0.00 30 1004.3
20260905234904 30 81 0.0 4.8 0.00 0.00 0.00 30 1004.3
20260905234404 30 246 1.6 4.8 0.00 0.00 0.00 30 1004.2
20260905233904 30 245 3.2 4.8 0.00 0.00 0.00 31 1004.2
20260905233404 30 239 1.6 4.8 0.00 0.00 0.00 31 1004.3
20260905232904 30 248 1.6 4.8 0.00 0.00 0.00 31 1004.3